This is the latest recevied weather packets stored in our database for station/object XQ6AK-15. If no packets are shown the sender has not sent any weather packets the latest 10 day(s).
| Time | Temp. | Humidity | Pressure | Rain* | Wind** | Luminosity | Snow |
|---|---|---|---|---|---|---|---|
| 1788028605 | 8.89° C | 99% | 1008.8 hPa | 0 mm | - | 166 W/m² | - |
| 1788028300 | 8.89° C | 99% | 1008.7 hPa | 0 mm | - | 90 W/m² | - |
| 1788027996 | 8.33° C | 99% | 1008.7 hPa | 1.78 mm | - | 183 W/m² | - |
| 1788027691 | 7.78° C | 99% | 1008.6 hPa | 6.1 mm | - | 109 W/m² | - |
| 1788027390 | 6.67° C | 99% | 1008.6 hPa | 31.75 mm | - | 89 W/m² | - |
| 1788027085 | 7.22° C | 99% | 1008.7 hPa | 51.56 mm | - | 37 W/m² | - |
| 1788026784 | 8.33° C | 99% | 1008.8 hPa | 16.76 mm | - | 21 W/m² | - |
| 1788026480 | 8.33° C | 97% | 1008.7 hPa | 3.05 mm | - | 22 W/m² | - |
| 1788026175 | 8.89° C | 95% | 1008.7 hPa | 3.05 mm | - | 19 W/m² | - |
| 1788025874 | 10° C | 92% | 1008.8 hPa | 0 mm | - | 32 W/m² | - |
| 1788025574 | 11.11° C | 94% | 1008.5 hPa | 0 mm | - | 50 W/m² | - |
| 1788025274 | 11.67° C | 93% | 1008.4 hPa | 0 mm | - | 88 W/m² | - |
| 1788024973 | 11.67° C | 93% | 1008.2 hPa | 0 mm | - | 188 W/m² | - |
| 1788024669 | 11.67° C | 95% | 1008.4 hPa | 0 mm | - | 465 W/m² | - |
| 1788024365 | 11.11° C | 97% | 1008.5 hPa | 0 mm | - | 567 W/m² | - |
| 1788024060 | 11.11° C | 96% | 1008.6 hPa | 0 mm | - | 169 W/m² | - |
| 1788023759 | 11.11° C | 94% | 1008.5 hPa | 0 mm | - | 259 W/m² | - |
| 1788023456 | 11.67° C | 93% | 1008.5 hPa | 0 mm | - | 252 W/m² | - |
| 1788023156 | 12.22° C | 93% | 1008.6 hPa | 0 mm | - | 267 W/m² | - |
| 1788022850 | 11.67° C | 95% | 1008.3 hPa | 0 mm | - | 386 W/m² | - |
| 1788022547 | 11.11° C | 95% | 1008.5 hPa | 0 mm | - | 432 W/m² | - |
| 1788022243 | 11.11° C | 93% | 1008.5 hPa | 0 mm | - | 248 W/m² | - |
| 1788021941 | 11.67° C | 92% | 1008.5 hPa | 0 mm | - | 177 W/m² | - |
| 1788021637 | 12.22° C | 89% | 1008.3 hPa | 0 mm | - | 278 W/m² | - |
| 1788021334 | 12.22° C | 87% | 1008.4 hPa | 0 mm | - | 323 W/m² | - |
* Rain latest hour (hover to see other rain measurements)
** Current wind speed in m/s (hover to see current wind gust speed)